Location: Bo?a Wola
(50.4192°N, 19.7966°E)
Time: 16:03:37
(UTC+00:00)

CZ-4C R/B - Pass Details

Date: 18 September 2024
Orbit: 519 x 1471 km, 63.4° (Epoch: 11 October)

Event Time Altitude Azimuth Distance (km) Brightness Sun altitude
Exits shadow 02:01:52 16° 304° (NW) 2,027 3.9 -21.8°
Maximum altitude 02:05:12 26° 351° (N) 1,696 4.0 -21.3°
Drops below altitude 10° 02:10:43 10° 46° (NE) 2,888 6.1 -20.6°
Sets 02:14:13 0° 58° (ENE) 4,026 7.3 -20.1°
